KE0YTD Weather Reports


time (UTC)temp
F
wind
direction
speed
knots
gust
knots
rain 1hr
in
rain 24hr
in
rain mn
in
humidity
%
barometer
mb
20260507181600 60 188 6.1 13.0 0.00 0.34 0.00 39 1016.3
20260507180051 59 213 6.1 11.3 0.00 0.34 0.00 42 1016.3
20260507174552 59 178 7.0 12.2 0.00 0.40 0.00 41 1016.5
20260507173053 57 198 5.2 11.3 0.00 0.40 0.00 43 1016.6
20260507171542 56 186 6.1 10.4 0.00 0.40 0.00 46 1016.7
20260507170053 54 173 5.2 10.4 0.00 0.40 0.00 49 1016.9
20260507164541 53 219 7.0 11.3 0.00 0.43 0.00 48 1017.0
20260507163057 53 206 7.8 13.0 0.00 0.43 0.00 47 1017.1
20260507161553 52 184 7.0 12.2 0.00 0.43 0.00 49 1017.2
20260507160044 51 211 7.0 13.0 0.00 0.43 0.00 48 1017.3
20260507154547 50 219 5.2 11.3 0.00 0.44 0.00 50 1017.3
20260507153054 48 199 7.0 14.8 0.00 0.44 0.00 50 1017.4
20260507151549 47 209 7.8 13.9 0.00 0.44 0.00 49 1017.4
20260507150047 46 211 7.0 10.4 0.00 0.44 0.00 49 1017.4
20260507144552 45 211 7.0 12.2 0.00 0.44 0.00 50 1017.3
20260507143053 44 217 7.0 11.3 0.00 0.44 0.00 49 1017.2
20260507141552 44 207 7.8 13.0 0.00 0.44 0.00 51 1017.2
20260507140053 43 188 7.8 12.2 0.00 0.44 0.00 51 1017.3
20260507134553 42 203 7.8 15.6 0.00 0.44 0.00 51 1017.3
20260507133051 41 205 7.8 12.2 0.00 0.44 0.00 51 1017.2
20260507131557 41 211 7.8 13.9 0.00 0.44 0.00 50 1017.1
20260507130107 40 178 7.8 13.0 0.00 0.44 0.00 49 1017.1
20260507124550 39 180 8.7 12.2 0.00 0.44 0.00 51 1017.0
20260507123042 39 175 7.0 13.0 0.00 0.44 0.00 50 1016.6
20260507121558 38 183 7.0 12.2 0.00 0.44 0.00 53 1016.6
20260507120100 37 183 7.0 12.2 0.00 0.44 0.00 53 1016.4
20260507114604 38 186 7.0 13.0 0.00 0.44 0.00 51 1016.4
20260507113052 38 185 7.0 12.2 0.00 0.44 0.00 52 1016.4
20260507111551 38 165 6.1 10.4 0.00 0.44 0.00 52 1016.3
20260507110052 38 177 6.1 10.4 0.00 0.44 0.00 50 1016.4
20260507104552 38 186 7.0 13.0 0.00 0.44 0.00 52 1016.4
20260507103046 38 164 7.0 13.0 0.00 0.44 0.00 52 1016.3
20260507101603 38 172 7.0 14.8 0.00 0.44 0.00 51 1016.4
20260507100053 37 171 7.0 14.8 0.00 0.44 0.00 54 1016.5
20260507094553 37 181 7.0 13.0 0.00 0.44 0.00 55 1016.7
20260507093055 37 188 7.0 12.2 0.00 0.44 0.00 56 1016.8
20260507091552 38 168 6.1 13.0 0.00 0.44 0.00 55 1016.6
20260507090052 37 173 7.0 13.0 0.00 0.44 0.00 56 1016.6
20260507084546 37 169 8.7 13.0 0.00 0.44 0.00 57 1016.8
20260507083052 37 173 7.0 11.3 0.00 0.44 0.00 60 1016.8
20260507081548 36 190 6.1 11.3 0.00 0.44 0.00 62 1016.9
20260507080050 36 171 6.1 12.2 0.00 0.44 0.00 64 1017.1
20260507074601 36 167 7.0 12.2 0.00 0.44 0.00 66 1017.4
20260507073049 35 192 6.1 12.2 0.00 0.44 0.00 69 1017.5
20260507071547 35 179 7.0 10.4 0.00 0.44 0.00 71 1017.6
20260507070048 35 175 6.1 12.2 0.00 0.44 0.00 73 1017.5
20260507064545 35 178 5.2 7.8 0.00 0.44 0.00 75 1017.6
20260507063045 35 192 5.2 8.7 0.00 0.44 0.00 77 1017.7
20260507061544 34 187 3.5 7.0 0.00 0.44 0.00 78 1017.6
20260507060043 34 182 4.3 8.7 0.00 0.44 0.00 79 1017.8
20260507054621 33 181 4.3 7.8 0.00 0.44 0.44 80 1017.8
20260507053054 33 203 4.3 6.1 0.00 0.44 0.44 80 1017.9
20260507051546 34 198 2.6 7.8 0.00 0.44 0.44 80 1017.7
20260507050056 35 156 3.5 7.8 0.00 0.44 0.44 79 1017.7
20260507044550 35 187 3.5 7.8 0.00 0.45 0.44 80 1017.7
20260507043048 34 169 3.5 8.7 0.00 0.45 0.44 81 1017.9
20260507041551 33 180 2.6 9.6 0.00 0.45 0.44 83 1017.9
20260507040046 33 138 3.5 7.8 0.00 0.45 0.44 84 1017.8
20260507034558 33 138 6.1 10.4 0.00 0.45 0.44 84 1017.9
20260507033054 33 133 4.3 7.8 0.00 0.45 0.44 85 1017.7
20260507031602 32 133 4.3 7.0 0.00 0.45 0.44 86 1017.8
20260507030053 32 122 3.5 6.1 0.00 0.45 0.44 85 1017.6
20260507024555 32 132 2.6 5.2 0.00 0.45 0.44 84 1017.5
20260507023102 32 135 3.5 6.1 0.00 0.45 0.44 83 1017.6
20260507021551 33 126 3.5 6.1 0.00 0.45 0.44 83 1017.4
20260507020050 33 121 2.6 3.5 0.00 0.45 0.44 84 1017.5
20260507014602 34 111 1.7 3.5 0.00 0.45 0.44 81 1017.5
20260507013053 35 125 2.6 5.2 0.00 0.45 0.44 79 1017.6
20260507011551 35 121 3.5 7.0 0.00 0.45 0.44 78 1017.8
20260507010052 35 111 4.3 6.1 0.00 0.45 0.44 78 1017.8
20260507004549 35 126 4.3 7.0 0.00 0.45 0.44 78 1017.9
20260507003051 35 144 3.5 6.1 0.00 0.45 0.44 77 1017.8
20260507001545 35 116 3.5 6.1 0.00 0.45 0.44 77 1017.8
20260507000045 34 119 3.5 7.0 0.00 0.45 0.44 78 1017.9
20260506234554 34 95 4.3 7.8 0.00 0.45 0.44 79 1017.8
20260506233108 34 142 2.6 6.1 0.00 0.45 0.44 78 1018.1
20260506231551 34 122 6.1 8.7 0.00 0.45 0.44 78 1018.1
20260506230051 34 131 3.5 7.8 0.00 0.45 0.44 78 1018.0
20260506224549 34 165 3.5 6.1 0.00 0.50 0.44 77 1018.3
20260506223043 34 135 1.7 5.2 0.00 0.50 0.44 78 1018.5
20260506221543 33 153 3.5 7.0 0.00 0.50 0.44 80 1018.5
20260506220052 33 128 3.5 6.1 0.01 0.50 0.44 80 1018.8
20260506214552 33 164 3.5 5.2 0.02 0.57 0.44 77 1019.0
20260506213102 34 88 0.9 3.5 0.04 0.57 0.44 78 1019.1
20260506211548 36 293 0.0 1.7 0.07 0.57 0.44 83 1019.1
20260506210045 34 39 0.9 5.2 0.09 0.56 0.43 82 1019.2
20260506204549 35 74 0.0 1.7 0.12 0.58 0.42 82 1019.3
20260506203043 33 41 0.9 3.5 0.15 0.57 0.40 84 1019.3
20260506201542 33 30 0.9 4.3 0.16 0.54 0.37 84 1019.6
20260506200048 33 333 3.5 7.0 0.15 0.51 0.34 85 1019.6
20260506194604 33 5 3.5 7.0 0.14 0.51 0.30 84 1019.6
20260506193046 32 343 3.5 7.0 0.11 0.46 0.25 87 1019.6
20260506191552 33 351 3.5 7.0 0.09 0.42 0.21 89 1019.7
20260506190051 31 321 4.3 7.0 0.09 0.40 0.19 91 1019.8
20260506184552 30 5 5.2 9.6 0.08 0.39 0.16 90 1019.9
20260506183051 30 342 6.1 8.7 0.07 0.37 0.14 91 1020.1